Weather History for Mosinee, WI

Change the Weather History Date:

Saturday, February 15, 2014

  Actual Average Record
Temperature  
Mean Temperature 5 °F -  
Max Temperature 17 °F 27 °F 42 °F (1999)
Min Temperature -7 °F 10 °F -7 °F (2004)
Degree Days  
Heating Degree Days 60    
Moisture  
Dew Point 3 °F    
Average Humidity 85    
Maximum Humidity 100    
Minimum Humidity 58    
Precipitation  
Precipitation 0.00 in - - ()
Sea Level Pressure  
Sea Level Pressure 29.93 in    
Wind  
Wind Speed 2 mph (SSE)    
Max Wind Speed 10 mph    
Max Gust Speed -    
Visibility 8 miles    
Events Snow    
Averages and records for this station are not official NWS values.
T = Trace of Precipitation, MM = Missing Value Source: NWS Daily Summary

Daily Weather History Graph

Daily Weather History Graph

Search for Another Location

Airport:

Trip Planner

Search our weather history database for the weather conditions in past years. The results will help you decide how hot, cold, wet, or windy it might be!

Date:

Astronomy

Feb. 15, 2014 Rise Set
Actual Time 6:59 AM CST 5:27 PM CST
Civil Twilight 6:29 AM CST 5:57 PM CST
Nautical Twilight 5:54 AM CST 6:31 PM CST
Astronomical Twilight 5:21 AM CST 7:05 PM CST
Moon 6:31 PM CST (2/15) 6:54 AM CST (2/15)
Length of Visible Light 11h 28m
Length of Day
10h 28m
Waxing Gibbous, 99% of the Moon is Illuminated
Feb 15
Waxing Gibbous
Feb 22
Last Quarter
Mar 1
New
Mar 8
First Quarter
Mar 16
Full

Hourly Weather History & Observations

Time (CST) Temp. Windchill Dew Point Humidity Pressure Visibility Wind Dir Wind Speed Gust Speed Precip Events Conditions
12:15 AM 1.4 °F -8.3 °F -0.4 °F 92% 29.95 in 10.0 mi NNW 4.6 mph - N/A   Clear
12:35 AM 1.4 °F - -2.2 °F 85% 29.96 in 10.0 mi Calm Calm - N/A   Clear
12:55 AM -0.4 °F - -4.0 °F 85% 29.95 in 10.0 mi Calm Calm - N/A   Clear
1:15 AM -0.4 °F - -2.2 °F 92% 29.95 in 10.0 mi Calm Calm - N/A   Clear
1:35 AM -4.0 °F -14.6 °F -5.8 °F 92% 29.95 in 10.0 mi WNW 4.6 mph - N/A   Clear
1:55 AM -0.4 °F -12.0 °F -4.0 °F 85% 29.96 in 10.0 mi WNW 5.8 mph - N/A   Clear
2:15 AM -0.4 °F - -4.0 °F 85% 29.96 in 10.0 mi Calm Calm - N/A   Clear
2:35 AM -4.0 °F - -7.6 °F 85% 29.96 in 10.0 mi Calm Calm - N/A   Clear
2:55 AM -4.0 °F - -5.8 °F 92% 29.97 in 10.0 mi Calm Calm - N/A   Clear
3:15 AM -0.4 °F - -2.2 °F 92% 29.96 in 10.0 mi Calm Calm - N/A   Clear
3:35 AM -0.4 °F - -4.0 °F 85% 29.96 in 10.0 mi Calm Calm - N/A   Clear
3:55 AM -5.8 °F - -7.6 °F 92% 29.97 in 10.0 mi Calm Calm - N/A   Clear
4:15 AM -4.0 °F - -5.8 °F 92% 29.97 in 10.0 mi Calm Calm - N/A   Clear
4:35 AM -5.8 °F - -9.4 °F 84% 29.96 in 10.0 mi Calm Calm - N/A   Clear
5:45 AM -7.6 °F - -11.2 °F 84% 29.96 in 7.0 mi Calm Calm - N/A   Clear
6:45 AM -7.6 °F - -7.6 °F 100% 29.96 in 10.0 mi Calm Calm - N/A   Clear
7:45 AM -5.8 °F - -7.6 °F 92% 29.97 in 10.0 mi Calm Calm - N/A   Mostly Cloudy
8:45 AM -5.8 °F - -7.6 °F 92% 29.98 in 10.0 mi Calm Calm - N/A   Mostly Cloudy
9:45 AM 3.2 °F - 1.4 °F 92% 29.96 in 10.0 mi Calm Calm - N/A   Clear
10:45 AM 10.4 °F 2.2 °F 1.4 °F 67% 29.95 in 10.0 mi South 4.6 mph - N/A   Clear
11:45 AM 12.2 °F 0.7 °F 3.2 °F 67% 29.93 in 10.0 mi SSE 8.1 mph - N/A   Clear
12:45 PM 15.8 °F 3.4 °F 3.2 °F 58% 29.91 in 10.0 mi South 10.4 mph - N/A   Clear
1:50 PM 17.6 °F 9.3 °F 5.0 °F 58% 29.88 in 10.0 mi South 5.8 mph - N/A   Clear
2:45 PM 17.6 °F 10.7 °F 5.0 °F 58% 29.87 in 10.0 mi South 4.6 mph - N/A   Clear
3:45 PM 17.6 °F 7.3 °F 6.8 °F 63% 29.87 in 10.0 mi South 8.1 mph - N/A   Mostly Cloudy
4:45 PM 17.6 °F 10.7 °F 6.8 °F 63% 29.87 in 10.0 mi SSE 4.6 mph - N/A   Mostly Cloudy
5:35 PM 17.6 °F 10.7 °F 8.6 °F 68% 29.88 in 1.0 mi SSE 4.6 mph - N/A Snow Light Snow
5:52 PM 15.8 °F 6.1 °F 12.2 °F 86% 29.88 in 1.0 mi SE 6.9 mph - N/A Snow Light Snow
6:45 PM 15.8 °F 8.6 °F 12.2 °F 86% 29.89 in 1.0 mi SE 4.6 mph - N/A Snow Light Snow
7:15 PM 15.8 °F 8.6 °F 12.2 °F 86% 29.89 in 3.0 mi ESE 4.6 mph - N/A Snow Light Snow
7:52 PM 14.0 °F 5.1 °F 12.2 °F 93% 29.90 in 10.0 mi East 5.8 mph - N/A   Overcast
8:45 PM 12.2 °F 6.1 °F 10.4 °F 92% 29.91 in 2.5 mi East 3.5 mph - N/A Snow Light Snow
9:15 PM 14.0 °F 8.2 °F 12.2 °F 93% 29.91 in 2.0 mi East 3.5 mph - N/A Snow Light Snow
9:35 PM 14.0 °F 8.2 °F 12.2 °F 93% 29.91 in 1.5 mi East 3.5 mph - N/A Snow Light Snow
9:55 PM 12.2 °F - 12.2 °F 100% 29.90 in 1.5 mi Calm Calm - N/A Snow Light Snow
10:15 PM 12.2 °F - 12.2 °F 100% 29.91 in 1.2 mi Calm Calm - N/A Snow Light Snow
10:35 PM 12.2 °F - 10.4 °F 92% 29.91 in 1.8 mi Calm Calm - N/A Snow Light Snow
10:55 PM 12.2 °F - 12.2 °F 100% 29.91 in 3.0 mi Calm Calm - N/A Snow Light Snow
11:15 PM 12.2 °F - 12.2 °F 100% 29.92 in 10.0 mi Calm Calm - N/A   Overcast
11:35 PM 12.2 °F - 10.4 °F 92% 29.91 in 7.0 mi Calm Calm - N/A Snow Light Snow
11:55 PM 12.2 °F - 10.4 °F 92% 29.92 in 7.0 mi Calm Calm - N/A Snow Light Snow